Satellite-Ground Cal/Val Region Overpasses Predictions

Prediction of Satellite NPP Overpassing Cal/Val Region: PacNW

Region Location: (Latitude: 10.00, Longitude: 139.50) to (Latitude: 22.70, Longitude: 165.60).

Table of predicted overpasses for the next 14.0 days since TLE Epoch: 10/31/2020
Interval Starting Time Starting Location Ending Time Ending Location
1 10/31/2020 16:01:54 ( 22.67, 144.43) 10/31/2020 16:05:29 ( 10.04, 141.43)
2 11/01/2020 03:10:59 ( 10.04, 151.96) 11/01/2020 03:14:34 ( 22.66, 148.96)
3 11/01/2020 15:42:52 ( 22.67, 149.19) 11/01/2020 15:46:27 ( 10.05, 146.19)
4 11/02/2020 02:51:56 ( 10.04, 156.72) 11/02/2020 02:55:31 ( 22.66, 153.72)
5 11/02/2020 15:23:49 ( 22.67, 153.95) 11/02/2020 15:27:24 ( 10.05, 150.95)
6 11/03/2020 02:32:54 ( 10.03, 161.48) 11/03/2020 02:36:29 ( 22.66, 158.48)
7 11/03/2020 15:04:47 ( 22.67, 158.70) 11/03/2020 15:08:22 ( 10.05, 155.71)
8 11/04/2020 02:14:39 ( 12.85, 165.59) 11/04/2020 02:17:26 ( 22.65, 163.24)
9 11/04/2020 03:55:21 ( 10.04, 140.86) 11/04/2020 03:57:00 ( 15.86, 139.51)
10 11/04/2020 14:45:44 ( 22.68, 163.46) 11/04/2020 14:49:19 ( 10.05, 160.46)
11 11/05/2020 03:36:19 ( 10.04, 145.62) 11/05/2020 03:39:54 ( 22.66, 142.62)
12 11/05/2020 14:29:49 ( 11.70, 165.60) 11/05/2020 14:30:17 ( 10.06, 165.22)
13 11/05/2020 16:08:12 ( 22.67, 142.84) 11/05/2020 16:11:47 ( 10.05, 139.85)
14 11/06/2020 03:17:16 ( 10.04, 150.38) 11/06/2020 03:20:51 ( 22.66, 147.38)
15 11/06/2020 15:49:09 ( 22.67, 147.60) 11/06/2020 15:52:44 ( 10.05, 144.60)
16 11/07/2020 02:58:14 ( 10.04, 155.14) 11/07/2020 03:01:49 ( 22.66, 152.14)
17 11/07/2020 15:30:07 ( 22.67, 152.36) 11/07/2020 15:33:42 ( 10.05, 149.36)
18 11/08/2020 02:39:11 ( 10.04, 159.89) 11/08/2020 02:42:46 ( 22.66, 156.90)
19 11/08/2020 15:11:04 ( 22.67, 157.12) 11/08/2020 15:14:39 ( 10.05, 154.12)
20 11/09/2020 02:20:09 ( 10.04, 164.65) 11/09/2020 02:23:44 ( 22.66, 161.65)
21 11/09/2020 14:52:02 ( 22.67, 161.88) 11/09/2020 14:55:37 ( 10.05, 158.88)
22 11/10/2020 03:42:37 ( 10.04, 144.03) 11/10/2020 03:46:12 ( 22.67, 141.04)
23 11/10/2020 14:34:12 ( 18.39, 165.59) 11/10/2020 14:36:34 ( 10.05, 163.64)
24 11/10/2020 16:14:29 ( 22.66, 141.26) 11/10/2020 16:16:32 ( 15.45, 139.51)
25 11/11/2020 03:23:34 ( 10.05, 148.79) 11/11/2020 03:27:09 ( 22.67, 145.79)
26 11/11/2020 15:55:27 ( 22.66, 146.02) 11/11/2020 15:59:02 ( 10.04, 143.02)
27 11/12/2020 03:04:32 ( 10.05, 153.55) 11/12/2020 03:08:07 ( 22.67, 150.55)
28 11/12/2020 15:36:24 ( 22.66, 150.78) 11/12/2020 15:39:59 ( 10.04, 147.78)
29 11/13/2020 02:45:29 ( 10.05, 158.31) 11/13/2020 02:49:04 ( 22.67, 155.31)
30 11/13/2020 15:17:22 ( 22.66, 155.53) 11/13/2020 15:20:57 ( 10.04, 152.54)
